Location: Newark
(7.0858°N, 171.3717°E)
Time: 05:48:43
(UTC+00:00)

Courier 1B Rocket - Pass Details

Date: 03 December 2020
Orbit: 920 x 1202 km, 28.2° (Epoch: 20 January)

Event Time Altitude Azimuth Distance (km) Brightness Sun altitude
Rises 12:02:53 0° 227° (SW) 3,705 - -74.0°
Reaches altitude 10° 12:05:36 10° 220° (SW) 2,796 - -74.2°
Maximum altitude 12:12:08 46° 148° (SSE) 1,395 - -74.6°
Drops below altitude 10° 12:19:07 10° 77° (ENE) 2,996 - -74.8°
Sets 12:22:07 0° 72° (ENE) 3,994 - -74.9°
